Regional Weather Roundup
Issued by NWS Jackson, KY

Home | Current Version | Previous Version | Text Only | Print | Product List | Glossary Off
Versions: 1 2 3 4 5 6 7 8 9 10 11 12 13 14 15 16 17 18 19 20 21 22 23 24 25 26 27 28

000
ASUS43 KJKL 231110
RWRJKL

EAST KENTUCKY HOURLY WEATHER ROUNDUP
NATIONAL WEATHER SERVICE JACKSON KY
700 AM EDT WED AUG 23 2017

NOTE: "FAIR" INDICATES FEW OR NO CLOUDS BELOW 12,000 FEET WITH
NO SIGNIFICANT WEATHER AND/OR OBSTRUCTIONS TO VISIBILITY.

* THESE REPORTS ARE NOT UNDER NWS QUALITY CONTROL AND MAY NOT
  REPORT WEATHER SUCH AS PRECIPITATION AND FOG.

KYZ079-080-083-085-087-088-110-112-115-119-120-231200
...EASTERN KENTUCKY...

CITY           SKY/WX    TMP DP  RH WIND       PRES   REMARKS
JACKSON        CLOUDY    69  68  96 NW3       29.99R FOG
LONDON         MOCLDY    70  67  90 NW5       29.99R
SOMERSET*      MOCLDY    68  68 100 CALM      30.01R
MONTICELLO*    CLOUDY    70  69  97 NW5       30.02R
WILLIAMSBURG*  CLOUDY    68  68 100 N3        30.00R
MIDDLESBORO*   CLOUDY    71  70  96 CALM      29.99R
HARLAN APT*    CLOUDY    68  66  94 CALM      30.01R
PIKE CO APT*   CLOUDY    68  68 100 NW7       29.99R
BIG SANDY APT* CLOUDY    69  69 100 NW5       29.99R
MOREHEAD APT*  CLOUDY    66  63  88 CALM      30.00R
$$

KYZ035-036-041-042-044-050-067-078-099-231200
...CENTRAL KENTUCKY...

CITY           SKY/WX    TMP DP  RH WIND       PRES   REMARKS
MT STERLING*   PTCLDY    66  64  94 CALM      30.01R
FLEMING/MASON* MOCLDY    64  59  86 N3        30.01R
DANVILLE*      CLOUDY    68  66  94 NW3       30.02R
LEXINGTON      PTCLDY    66  63  90 N5        30.00R
FRANKFORT      CLEAR     67  63  87 N3        29.98R
LOUISVILLE     PTCLDY    66  61  84 N6        30.00R
LEBANON*         N/A     64  64 100 CALM      30.01R
GLASGOW*       CLEAR     65  65 100 CALM      30.01R
BOWLING GREEN  CLEAR     68  66  93 NW3       30.02R
$$

KYZ091>093-OHZ055-061-077-WVZ005-015-034-035-042-231200
...SOUTHERN OHIO/WEST VIRGINIA...

CITY           SKY/WX    TMP DP  RH WIND       PRES   REMARKS
COVINGTON      PTCLDY    63  59  87 N7        30.00R
COLUMBUS       CLEAR     60  56  86 N5        29.98R
DAYTON         CLEAR     57  54  89 NW7       30.01R
WILMINGTON     CLEAR     59  56  89 N9        30.00R
HUNTINGTON     MOCLDY    69  65  86 N7        29.96R
CHARLESTON     CLOUDY    70  66  87 NW5       29.95R
PINEVILLE*     CLOUDY    69  68  96 MISG      30.02R FOG
BECKLEY        CLOUDY    67  65  93 N6        29.99R
BLUEFIELD      LGT RAIN  65  64  97 W6        30.02R FOG
LOGAN CO APT*  CLOUDY    70  68  94 CALM      29.97R
$$

VAZ002-007-008-TNZ017-027-036-066-071-231200
...SOUTHWEST VIRGINIA/EAST TENNESSEE...

CITY           SKY/WX    TMP DP  RH WIND       PRES   REMARKS
WISE*          CLOUDY    68  68 100 CALM      30.05R
JONESVILLE*    LGT RAIN  72  70  94 CALM      30.00S
ABINGDON*      CLOUDY    72  68  89 NW3       30.00R
BRISTOL        CLOUDY    74  69  85 W5        29.98R
MORRISTOWN*    CLOUDY    73  70  88 NW5       29.97R
SEVIERVILLE*   PTSUNNY   73  68  83 W5        29.96R
KNOXVILLE      CLOUDY    75  68  78 W7        29.96R
LAFOLLETTE*    CLOUDY    73  68  83 CALM      30.01S
OAK RIDGE      CLOUDY    74  69  85 CALM      29.98R
CROSSVILLE     CLOUDY    69  67  93 NW3       30.04R
NASHVILLE      PTCLDY    71  68  90 NW5       30.02R
$$

...KEY TO REMARKS...
VSB - VISIBILITY IN MILES
WCI - WIND CHILL INDEX
HX  - HEAT INDEX

$$




USA.gov is the U.S. government's official web portal to all federal, state and local government web resources and services.